OneWeb SL0499

operational
NORAD ID: 54117 Int'l Des: 2022-138 Owner: ONEWEBN Country: UK Constellation: oneweb
LEOCIRCULARPOLARONEWEB_TYPE

About OneWeb SL0499

Description loading...

Live Position

Loading 3D Globe...

Upcoming Passes

Altitude History

Altitude vs Time

uPlot chart will show altitude changes over time

Two-Line Element Set

1 54117U 22138E 25353.97871515 .00000074 00000-0 15223-3 0 9992
2 54117 87.9202 340.6323 0002036 86.2013 273.9353 13.19727051153186
Epoch: Dec 19, 2025 • Age: 10 hours

Current Status

Altitude 1209.2 km
Velocity 7.25 km/s
Sub-Earth Point -56.75°S, 72.26°W
Launch Date Oct 22, 2022
Age 3.1 years
Type internet

Technical Details

Classification Payload
Mass 148.00 kg
Dry Mass 140.00 kg
Total Mass 148.00 kg
Length 1.30 m
Diameter 1.00 m
Span 5.00 m
Shape Trapezoid+2 pan
Manufacturer ONEWUS
Bus Type ARROW
Phase Status In Orbit
Owner/State ONEWEBN/UK

Large Constellations

Loading constellations...